DLH67F EGSS-EDDF

Flight info

Callsign DLH67F
Flight time 1h 3m
Altitude 37000
Route DET2D DET L6 DVR UL9 KONAN UL607 SPI T180 NIVNU T847 IMCOM IMCOM1D
Aircraft A320/M-SDE2E3FGIJ1RWYZ/LB1

Departure

Time 2026-05-01 11:22
Airport London Stansted Airport (EGSS)

Arrival

Time 2026-05-01 12:25
Airport Frankfurt Main Airport (EDDF)
Time Latitude Longitude Altitude Speed Heading
2026-05-01 10:47 51.89130 0.25569 361 ft 0 kts 42°
2026-05-01 11:06 51.89129 0.25567 348 ft 0 kts 42°
2026-05-01 11:07 51.89128 0.25566 348 ft 0 kts 42°
2026-05-01 11:07 51.89127 0.25565 348 ft 1 kts 42°
2026-05-01 11:08 51.89119 0.25553 359 ft 2 kts 42°
2026-05-01 11:08 51.89112 0.25543 359 ft 2 kts 42°
2026-05-01 11:08 51.89098 0.25522 356 ft 3 kts 42°
2026-05-01 11:09 51.89089 0.25509 356 ft 3 kts 28°
2026-05-01 11:09 51.89069 0.25494 350 ft 3 kts 21°
2026-05-01 11:09 51.89047 0.25491 354 ft 3 kts 329°
2026-05-01 11:10 51.89044 0.25494 348 ft 0 kts 329°
2026-05-01 11:14 51.89051 0.25488 359 ft 4 kts 329°
2026-05-01 11:14 51.89089 0.25437 359 ft 11 kts 315°
2026-05-01 11:15 51.89153 0.25333 353 ft 15 kts 314°
2026-05-01 11:15 51.89234 0.25183 351 ft 18 kts 307°
2026-05-01 11:15 51.89224 0.25078 352 ft 9 kts 237°
2026-05-01 11:15 51.89175 0.24982 356 ft 13 kts 223°
2026-05-01 11:16 51.89098 0.24854 359 ft 18 kts 224°
2026-05-01 11:16 51.88988 0.24699 356 ft 23 kts 221°
2026-05-01 11:16 51.88857 0.24505 351 ft 28 kts 223°
2026-05-01 11:16 51.88709 0.24281 354 ft 29 kts 223°
2026-05-01 11:17 51.88564 0.24064 348 ft 30 kts 223°
2026-05-01 11:17 51.88402 0.23820 348 ft 33 kts 221°
2026-05-01 11:17 51.88224 0.23551 348 ft 36 kts 224°
2026-05-01 11:17 51.88114 0.23384 355 ft 14 kts 221°
2026-05-01 11:18 51.88026 0.23256 354 ft 20 kts 223°
2026-05-01 11:18 51.87911 0.23087 352 ft 25 kts 223°
2026-05-01 11:18 51.87814 0.22918 353 ft 0 kts 223°
2026-05-01 11:18 51.87774 0.22875 355 ft 16 kts 213°
2026-05-01 11:19 51.87671 0.22724 348 ft 23 kts 224°
2026-05-01 11:19 51.87538 0.22529 346 ft 29 kts 220°
2026-05-01 11:19 51.87404 0.22278 334 ft 27 kts 265°
2026-05-01 11:19 51.87439 0.22133 336 ft 0 kts 303°
2026-05-01 11:20 51.87439 0.22132 336 ft 1 kts 303°
2026-05-01 11:20 51.87461 0.22103 332 ft 8 kts 320°
2026-05-01 11:20 51.87505 0.22028 335 ft 6 kts 341°
2026-05-01 11:20 51.87548 0.22060 332 ft 10 kts 36°
2026-05-01 11:21 51.87602 0.22132 334 ft 0 kts 42°
2026-05-01 11:21 51.87654 0.22209 336 ft 49 kts 44°
2026-05-01 11:21 51.88191 0.23015 334 ft 155 kts 43°
2026-05-01 11:22 51.89090 0.24326 1054 ft 175 kts 47°
2026-05-01 11:22 51.89951 0.25608 2000 ft 152 kts 50°
2026-05-01 11:22 51.90699 0.26752 2942 ft 143 kts 57°
2026-05-01 11:22 51.91095 0.27952 3560 ft 108 kts 84°
2026-05-01 11:23 51.91147 0.29161 3736 ft 108 kts 105°
2026-05-01 11:23 51.90911 0.30271 3961 ft 104 kts 124°
2026-05-01 11:23 51.90397 0.31154 4761 ft 102 kts 147°
2026-05-01 11:23 51.89785 0.31541 5815 ft 91 kts 168°
2026-05-01 11:24 51.89096 0.31470 6577 ft 110 kts 188°
2026-05-01 11:24 51.88410 0.30919 7584 ft 111 kts 209°
2026-05-01 11:24 51.86540 0.30107 9097 ft 165 kts 175°
2026-05-01 11:25 51.85317 0.30025 10056 ft 187 kts 183°
2026-05-01 11:25 51.82528 0.28692 11466 ft 233 kts 199°
2026-05-01 11:25 51.80964 0.27561 12133 ft 262 kts 201°
2026-05-01 11:26 51.79198 0.26209 12688 ft 299 kts 202°
2026-05-01 11:26 51.75192 0.24081 13713 ft 285 kts 175°
2026-05-01 11:26 51.73331 0.24890 14208 ft 273 kts 151°
2026-05-01 11:27 51.71786 0.26560 14673 ft 262 kts 143°
2026-05-01 11:27 51.70373 0.28252 15138 ft 251 kts 145°
2026-05-01 11:27 51.68919 0.29809 15624 ft 260 kts 149°
2026-05-01 11:27 51.67270 0.31345 16124 ft 287 kts 152°
2026-05-01 11:28 51.65416 0.32890 16647 ft 312 kts 153°
2026-05-01 11:28 51.63396 0.34481 17171 ft 334 kts 154°
2026-05-01 11:28 51.61237 0.36153 17726 ft 354 kts 154°
2026-05-01 11:29 51.56577 0.39762 18743 ft 388 kts 154°
2026-05-01 11:29 51.54104 0.41685 19229 ft 402 kts 154°
2026-05-01 11:29 51.48946 0.45692 20180 ft 425 kts 154°
2026-05-01 11:30 51.46251 0.47753 20676 ft 430 kts 154°
2026-05-01 11:30 51.43536 0.49809 21179 ft 433 kts 155°
2026-05-01 11:30 51.40796 0.51878 21695 ft 436 kts 154°
2026-05-01 11:30 51.38050 0.53952 22211 ft 439 kts 154°
2026-05-01 11:31 51.35303 0.56125 22687 ft 442 kts 150°
2026-05-01 11:31 51.32811 0.59028 23228 ft 446 kts 139°
2026-05-01 11:31 51.30728 0.62732 23762 ft 451 kts 127°
2026-05-01 11:31 51.29158 0.67094 24229 ft 456 kts 116°
2026-05-01 11:32 51.28135 0.71926 24716 ft 461 kts 108°
2026-05-01 11:32 51.27247 0.76863 25194 ft 464 kts 108°
2026-05-01 11:32 51.26351 0.81815 25694 ft 465 kts 108°
2026-05-01 11:32 51.25446 0.86774 26199 ft 465 kts 108°
2026-05-01 11:33 51.24548 0.91657 26725 ft 464 kts 109°
2026-05-01 11:33 51.23635 0.96594 27235 ft 463 kts 109°
2026-05-01 11:33 51.22722 1.01510 27756 ft 462 kts 109°
2026-05-01 11:33 51.21810 1.06410 28287 ft 460 kts 109°
2026-05-01 11:34 51.20898 1.11296 28827 ft 458 kts 109°
2026-05-01 11:34 51.19989 1.16150 29381 ft 456 kts 109°
2026-05-01 11:34 51.19082 1.20987 29947 ft 455 kts 109°
2026-05-01 11:34 51.18173 1.25813 30478 ft 453 kts 109°
2026-05-01 11:35 51.17265 1.30624 30970 ft 452 kts 109°
2026-05-01 11:35 51.16481 1.35478 31468 ft 453 kts 104°
2026-05-01 11:35 51.16032 1.40444 31976 ft 455 kts 98°
2026-05-01 11:35 51.15801 1.45464 32494 ft 453 kts 97°
2026-05-01 11:36 51.15570 1.50465 33018 ft 452 kts 97°
2026-05-01 11:36 51.15336 1.55383 33546 ft 450 kts 97°
2026-05-01 11:36 51.15095 1.60349 34091 ft 448 kts 97°
2026-05-01 11:36 51.14851 1.65300 34586 ft 447 kts 97°
2026-05-01 11:37 51.14606 1.70215 35067 ft 445 kts 97°
2026-05-01 11:37 51.14360 1.75122 35564 ft 444 kts 97°
2026-05-01 11:37 51.14113 1.80010 36068 ft 442 kts 97°
2026-05-01 11:37 51.13864 1.84878 36579 ft 440 kts 97°
2026-05-01 11:38 51.13615 1.89727 37050 ft 439 kts 97°
2026-05-01 11:38 51.13361 1.94608 37207 ft 446 kts 97°
2026-05-01 11:38 51.13100 1.99569 37216 ft 451 kts 97°
2026-05-01 11:39 51.12575 2.09505 37217 ft 450 kts 97°
2026-05-01 11:39 51.12041 2.19442 37213 ft 450 kts 97°
2026-05-01 11:40 51.11498 2.29376 37212 ft 450 kts 97°
2026-05-01 11:40 51.10950 2.39244 37214 ft 450 kts 97°
2026-05-01 11:41 51.10391 2.49172 37228 ft 450 kts 97°
2026-05-01 11:41 51.09824 2.59082 37229 ft 450 kts 97°
2026-05-01 11:42 51.08819 2.68855 37232 ft 447 kts 107°
2026-05-01 11:42 51.07081 2.78351 37234 ft 447 kts 108°
2026-05-01 11:43 51.05360 2.87843 37233 ft 446 kts 108°
2026-05-01 11:43 51.03632 2.97318 37233 ft 447 kts 108°
2026-05-01 11:44 51.01032 3.11474 37230 ft 447 kts 108°
2026-05-01 11:44 50.99283 3.20930 37225 ft 447 kts 108°
2026-05-01 11:45 50.97525 3.30387 37225 ft 447 kts 108°
2026-05-01 11:45 50.95755 3.39859 37226 ft 447 kts 108°
2026-05-01 11:46 50.93983 3.49296 37226 ft 441 kts 108°
2026-05-01 11:46 50.92232 3.58576 37218 ft 443 kts 108°
2026-05-01 11:47 50.91348 3.63243 37035 ft 442 kts 108°
2026-05-01 11:47 50.90455 3.67927 36839 ft 447 kts 108°
2026-05-01 11:47 50.89544 3.72657 36580 ft 449 kts 108°
2026-05-01 11:47 50.88641 3.77329 36278 ft 449 kts 108°
2026-05-01 11:48 50.87728 3.82044 35975 ft 449 kts 108°
2026-05-01 11:48 50.86808 3.86788 35678 ft 450 kts 108°
2026-05-01 11:48 50.85886 3.91527 35373 ft 451 kts 108°
2026-05-01 11:48 50.84959 3.96287 35081 ft 452 kts 108°
2026-05-01 11:49 50.84032 4.01037 34784 ft 452 kts 108°
2026-05-01 11:49 50.83099 4.05805 34497 ft 453 kts 108°
2026-05-01 11:49 50.82165 4.10562 34203 ft 454 kts 108°
2026-05-01 11:49 50.81227 4.15330 33878 ft 454 kts 108°
2026-05-01 11:50 50.80285 4.20106 33545 ft 455 kts 108°
2026-05-01 11:50 50.79354 4.24814 33230 ft 456 kts 108°
2026-05-01 11:50 50.78406 4.29596 32911 ft 456 kts 108°
2026-05-01 11:50 50.77453 4.34390 32593 ft 457 kts 108°
2026-05-01 11:51 50.76500 4.39177 32283 ft 457 kts 108°
2026-05-01 11:51 50.75545 4.43961 31976 ft 458 kts 108°
2026-05-01 11:51 50.74583 4.48767 31671 ft 459 kts 108°
2026-05-01 11:51 50.73619 4.53568 31374 ft 458 kts 108°
2026-05-01 11:52 50.72657 4.58352 31069 ft 457 kts 108°
2026-05-01 11:52 50.71702 4.63126 30774 ft 455 kts 108°
2026-05-01 11:52 50.70773 4.67910 30474 ft 453 kts 108°
2026-05-01 11:52 50.69862 4.72655 30290 ft 456 kts 108°
2026-05-01 11:53 50.68015 4.82211 30270 ft 455 kts 108°
2026-05-01 11:53 50.66152 4.91750 30268 ft 456 kts 108°
2026-05-01 11:54 50.64232 5.01205 30264 ft 455 kts 109°
2026-05-01 11:54 50.62230 5.10862 30268 ft 468 kts 109°
2026-05-01 11:55 50.60213 5.20601 30263 ft 467 kts 109°
2026-05-01 11:55 50.58192 5.30333 30263 ft 468 kts 109°
2026-05-01 11:56 50.56161 5.40060 30264 ft 469 kts 108°
2026-05-01 11:56 50.54120 5.49796 30267 ft 468 kts 108°
2026-05-01 11:57 50.52417 5.57874 30267 ft 468 kts 108°
2026-05-01 11:57 50.50108 5.69273 30270 ft 467 kts 106°
2026-05-01 11:58 50.48331 5.79026 30271 ft 468 kts 106°
2026-05-01 11:59 50.45596 5.93724 30276 ft 467 kts 106°
2026-05-01 11:59 50.43752 6.03470 30272 ft 466 kts 106°
2026-05-01 12:00 50.41287 6.16402 30271 ft 464 kts 106°
2026-05-01 12:01 50.38188 6.32546 30274 ft 466 kts 106°
2026-05-01 12:01 50.36685 6.40722 30275 ft 466 kts 102°
2026-05-01 12:02 50.35845 6.50789 30276 ft 466 kts 95°
2026-05-01 12:02 50.35220 6.60898 30282 ft 466 kts 95°
2026-05-01 12:02 50.34900 6.65867 30290 ft 452 kts 95°
2026-05-01 12:03 50.34583 6.70775 30258 ft 459 kts 95°
2026-05-01 12:03 50.34261 6.75731 29978 ft 466 kts 95°
2026-05-01 12:03 50.33911 6.80763 29636 ft 463 kts 97°
2026-05-01 12:03 50.33272 6.85665 29312 ft 459 kts 104°
2026-05-01 12:04 50.32289 6.90417 28985 ft 459 kts 110°
2026-05-01 12:04 50.30996 6.94977 28668 ft 457 kts 114°
2026-05-01 12:04 50.29647 6.99465 28355 ft 455 kts 114°
2026-05-01 12:04 50.28304 7.03961 27983 ft 462 kts 114°
2026-05-01 12:05 50.26933 7.08564 27587 ft 468 kts 114°
2026-05-01 12:05 50.24206 7.17682 26819 ft 459 kts 114°
2026-05-01 12:05 50.22843 7.22222 26443 ft 468 kts 114°
2026-05-01 12:06 50.21452 7.26848 26062 ft 467 kts 114°
2026-05-01 12:06 50.20079 7.31407 25706 ft 464 kts 114°
2026-05-01 12:06 50.18853 7.36106 25337 ft 469 kts 109°
2026-05-01 12:06 50.17722 7.40880 24978 ft 468 kts 109°
2026-05-01 12:07 50.16595 7.45620 24630 ft 464 kts 109°
2026-05-01 12:07 50.15473 7.50323 24279 ft 462 kts 109°
2026-05-01 12:07 50.14353 7.55003 23929 ft 460 kts 110°
2026-05-01 12:07 50.13237 7.59656 23527 ft 457 kts 110°
2026-05-01 12:08 50.12119 7.64307 23127 ft 460 kts 110°
2026-05-01 12:08 50.11020 7.68973 22728 ft 457 kts 108°
2026-05-01 12:08 50.10108 7.73631 22254 ft 454 kts 106°
2026-05-01 12:08 50.09204 7.78316 21741 ft 448 kts 106°
2026-05-01 12:09 50.08540 7.83018 21228 ft 443 kts 96°
2026-05-01 12:09 50.08535 7.87776 20729 ft 439 kts 84°
2026-05-01 12:09 50.09196 7.92413 20238 ft 438 kts 72°
2026-05-01 12:09 50.10279 7.96843 19753 ft 437 kts 69°
2026-05-01 12:10 50.11433 8.01211 19284 ft 434 kts 69°
2026-05-01 12:10 50.13671 8.09893 18308 ft 430 kts 70°
2026-05-01 12:10 50.14744 8.14224 17780 ft 424 kts 70°
2026-05-01 12:11 50.16755 8.22490 16635 ft 392 kts 71°
2026-05-01 12:11 50.17727 8.26542 16011 ft 418 kts 71°
2026-05-01 12:11 50.18530 8.31065 15649 ft 432 kts 82°
2026-05-01 12:12 50.18673 8.35522 15349 ft 405 kts 94°
2026-05-01 12:12 50.18121 8.39817 14845 ft 399 kts 109°
2026-05-01 12:12 50.16925 8.43550 14258 ft 373 kts 124°
2026-05-01 12:12 50.15184 8.46321 13676 ft 345 kts 143°
2026-05-01 12:13 50.13089 8.47819 13115 ft 322 kts 166°
2026-05-01 12:13 50.10935 8.47876 12720 ft 302 kts 189°
2026-05-01 12:13 50.09081 8.46593 12384 ft 288 kts 214°
2026-05-01 12:13 50.07770 8.44264 11745 ft 290 kts 239°
2026-05-01 12:14 50.07217 8.41231 11026 ft 297 kts 265°
2026-05-01 12:14 50.07473 8.37967 10318 ft 326 kts 280°
2026-05-01 12:14 50.07765 8.34241 9596 ft 350 kts 269°
2026-05-01 12:14 50.07583 8.30548 8900 ft 336 kts 258°
2026-05-01 12:15 50.07061 8.27102 8492 ft 316 kts 251°
2026-05-01 12:15 50.06408 8.23982 8366 ft 290 kts 248°
2026-05-01 12:15 50.05732 8.21121 8344 ft 285 kts 246°
2026-05-01 12:15 50.05014 8.18223 8334 ft 285 kts 246°
2026-05-01 12:16 50.04308 8.15378 8277 ft 275 kts 245°
2026-05-01 12:16 50.03641 8.12691 8251 ft 262 kts 245°
2026-05-01 12:16 50.02954 8.10169 8062 ft 247 kts 234°
2026-05-01 12:16 50.01778 8.08376 7632 ft 234 kts 205°
2026-05-01 12:17 50.00248 8.07709 7089 ft 226 kts 181°
2026-05-01 12:17 49.98699 8.07567 6635 ft 222 kts 182°
2026-05-01 12:17 49.97138 8.07395 5878 ft 227 kts 176°
2026-05-01 12:17 49.95701 8.08164 5588 ft 208 kts 141°
2026-05-01 12:18 49.94907 8.09767 5961 ft 171 kts 116°
2026-05-01 12:18 49.94700 8.11413 6240 ft 143 kts 90°
2026-05-01 12:18 49.95023 8.12728 6436 ft 125 kts 57°
2026-05-01 12:18 49.95703 8.13635 6378 ft 145 kts 49°
2026-05-01 12:19 49.96494 8.14783 6878 ft 175 kts 50°
2026-05-01 12:19 49.97127 8.16535 6224 ft 194 kts 84°
2026-05-01 12:19 49.97255 8.18645 5677 ft 197 kts 91°
2026-05-01 12:19 49.97343 8.20767 5176 ft 201 kts 91°
2026-05-01 12:20 49.97488 8.22992 4711 ft 214 kts 84°
2026-05-01 12:20 49.97863 8.25288 4191 ft 222 kts 75°
2026-05-01 12:20 49.98368 8.27450 3680 ft 208 kts 71°
2026-05-01 12:20 49.98853 8.29457 3320 ft 189 kts 72°
2026-05-01 12:21 49.99282 8.31229 3069 ft 163 kts 73°
2026-05-01 12:21 49.99660 8.32824 2775 ft 152 kts 72°
2026-05-01 12:21 50.00006 8.34272 2560 ft 136 kts 73°
2026-05-01 12:21 50.00323 8.35576 2389 ft 125 kts 74°
2026-05-01 12:22 50.00620 8.36838 2178 ft 123 kts 74°
2026-05-01 12:22 50.00910 8.38038 2006 ft 113 kts 74°
2026-05-01 12:22 50.01188 8.39195 1863 ft 124 kts 75°
2026-05-01 12:22 50.01507 8.40555 1699 ft 133 kts 72°
2026-05-01 12:23 50.01823 8.41845 1493 ft 124 kts 72°
2026-05-01 12:23 50.02116 8.43063 1315 ft 115 kts 73°
2026-05-01 12:23 50.02380 8.44173 1158 ft 106 kts 73°
2026-05-01 12:23 50.02638 8.45246 1001 ft 108 kts 72°
2026-05-01 12:24 50.02907 8.46374 837 ft 112 kts 73°
2026-05-01 12:24 50.03184 8.47525 674 ft 116 kts 72°
2026-05-01 12:24 50.03469 8.48720 501 ft 116 kts 72°
2026-05-01 12:24 50.03741 8.49854 345 ft 108 kts 72°
2026-05-01 12:25 50.03950 8.50734 324 ft 54 kts 68°
2026-05-01 12:25 50.04115 8.51596 334 ft 35 kts 95°
2026-05-01 12:25 50.04100 8.51744 335 ft 0 kts 99°
2026-05-01 12:27 50.04098 8.51762 336 ft 4 kts 99°
2026-05-01 12:27 50.04077 8.51942 337 ft 12 kts 100°
2026-05-01 12:28 50.04099 8.52251 350 ft 17 kts 70°
2026-05-01 12:28 50.04142 8.52437 353 ft 19 kts 69°
2026-05-01 12:28 50.04185 8.52610 357 ft 15 kts 68°
2026-05-01 12:29 50.04240 8.52828 352 ft 24 kts 69°
2026-05-01 12:29 50.04299 8.53090 363 ft 27 kts 69°